Printer-friendly version
Follow the MPC on Twitter Follow the MPC on Facebook The MPC blog
Minor Planet Center

MPEC 2007-V59 : 2007 VD12

The following Minor Planet Electronic Circular may be linked-to from your own Web pages, but must not otherwise be redistributed electronically.

A form allowing access to any MPEC is at the bottom of this page.


Read MPEC 2007-V58 Read MPEC 2007-V60


M.P.E.C. 2007-V59                                Issued 2007 Nov. 7, 14:52 UT

     The Minor Planet Electronic Circulars contain information on unusual
         minor planets and routine data on comets.  They are published
   on behalf of Commission 20 of the International Astronomical Union by the
          Minor Planet Center, Smithsonian Astrophysical Observatory,
                          Cambridge, MA 02138, U.S.A.

             Prepared using the Tamkin Foundation Computer Network

                              MPC@CFA.HARVARD.EDU
          URL http://www.cfa.harvard.edu/iau/mpc.html  ISSN 1523-6714

                                   2007 VD12

Observations:
     K07V12D* C2007 11 05.37916 05 27 03.31 -17 17 13.1          18.4 V EV059703
     K07V12D  C2007 11 05.38456 05 27 03.52 -17 17 11.6          18.0 V EV059703
     K07V12D  C2007 11 05.38998 05 27 03.81 -17 17 09.7          18.1 V EV059703
     K07V12D  C2007 11 05.39542 05 27 03.99 -17 17 07.9          18.1 V EV059703
     K07V12D  C2007 11 05.46724 05 27 07.20 -17 16 46.5          18.0 V EV059703
     K07V12D  C2007 11 05.47397 05 27 07.48 -17 16 44.2          18.0 V EV059703
     K07V12D  C2007 11 05.48067 05 27 07.77 -17 16 41.9          18.1 V EV059703
     K07V12D  C2007 11 05.48732 05 27 08.10 -17 16 39.3          18.0 V EV059703
     K07V12D  C2007 11 07.36513 05 29 06.57 -17 04 18.3          18.6 R EV059711
     K07V12D  C2007 11 07.36715 05 29 05.76 -17 04 19.7          18.2 R EV059850
     K07V12D  C2007 11 07.37278 05 29 06.90 -17 04 14.5          18.8 R EV059711
     K07V12D  C2007 11 07.38042 05 29 07.26 -17 04 10.8          18.5 R EV059711
     K07V12D  C2007 11 07.38200 05 29 06.43 -17 04 12.5          17.9 R EV059850
     K07V12D  C2007 11 07.38248 05 29 07.69 -17 04 10.7          18.1 V EV059703
     K07V12D  C2007 11 07.38698 05 29 07.90 -17 04 09.0          18.2 V EV059703
     K07V12D  C2007 11 07.39142 05 29 08.08 -17 04 06.8          18.1 V EV059703
     K07V12D  C2007 11 07.39587 05 29 08.23 -17 04 04.4          18.1 V EV059703
     K07V12D  C2007 11 07.39688 05 29 07.13 -17 04 05.0          18.3 R EV059850
     K07V12D  C2007 11 07.41176 05 29 07.85 -17 03 57.5          18.1 R EV059850

Observer details:
703 Catalina Sky Survey.  Observer R. A. Kowalski.  Measurers E. C. Beshore,
    A. Boattini, G. J. Garradd, A. R. Gibbs, A. D. Grauer, R. E. Hill,
    R. A. Kowalski, S. M. Larson, R. H. McNaught.  0.68-m Schmidt + CCD.
711 McDonald Observatory.  Observer J. G. Ries.  0.76-m reflector + CCD
    + prime-focus corrector.
850 Cordell-Lorenz Observatory, Sewanee.  Observers D. T. Durig,
    E. M. Utermohlen, D. L. Trompeter.  0.30-m f/3 Schmidt-Cassegrain
    + 765x510 CCD.

Orbital elements:
2007 VD12                                           PHA, Earth MOID = 0.0097 AU
Epoch 2007 Oct. 27.0 TT = JDT 2454400.5                 MPC
M 290.24147              (2000.0)            P               Q
n   0.78355043     Peri.   91.97423     -0.81881157     -0.44314535
a   1.1652651      Node    61.89490     +0.20091554     -0.81670344
e   0.3911710      Incl.   24.43789     +0.53775511     -0.36961829
P   1.26           H   20.0           G   0.15           U   9
Residuals in seconds of arc
071105 703  0.1+  0.3+    071105 703  0.2+  0.2-    071107 703  0.2+  0.2-
071105 703  0.3-  0.2+    071107 711  0.4+  0.1+    071107 703  0.2-  0.1-
071105 703  0.4+  0.5+    071107 850  0.4+  0.1+    071107 703  1.0-  0.1+
071105 703  0.4-  0.7+    071107 711  0.1+  0.2+    071107 850  0.2-  0.2-
071105 703  0.3+  0.6-    071107 711  0.2+  0.3+    071107 850  0.1-  0.4-
071105 703  0.0   0.6-    071107 850  0.0   0.1-
071105 703  0.2-  0.5-    071107 703  0.2+  0.2+

Ephemeris:
2007 VD12                a,e,i = 1.17, 0.39, 24                  q = 0.7094
Date    TT    R. A. (2000) Decl.     Delta      r     Elong.  Phase     V
2007 11 06    05 27.67   -17 13.2    0.193    1.119   127.6    44.6    18.4
2007 11 07    05 28.71   -17 06.6    0.182    1.113   128.1    44.5    18.2
2007 11 08    05 29.79   -16 58.2    0.172    1.106   128.5    44.5    18.1
2007 11 09    05 30.93   -16 47.9    0.162    1.100   129.0    44.5    18.0
2007 11 10    05 32.13   -16 35.3    0.152    1.093   129.4    44.4    17.8
2007 11 11    05 33.43   -16 19.9    0.142    1.087   129.9    44.3    17.6
2007 11 12    05 34.83   -16 01.1    0.132    1.080   130.4    44.2    17.5
2007 11 13    05 36.39   -15 38.2    0.122    1.074   131.0    44.1    17.3
2007 11 14    05 38.14   -15 10.1    0.112    1.067   131.5    44.0    17.1
2007 11 15    05 40.14   -14 35.4    0.102    1.060   132.1    43.8    16.9
2007 11 16    05 42.49   -13 52.0    0.0919   1.054   132.7    43.6    16.6
2007 11 17    05 45.30   -12 56.8    0.0820   1.047   133.4    43.3    16.3
2007 11 18    05 48.78   -11 45.2    0.0721   1.040   134.2    43.0    16.0
2007 11 19    05 53.23   -10 09.6    0.0624   1.033   135.0    42.5    15.7
2007 11 20    05 59.16   -07 57.3    0.0527   1.027   136.0    42.0    15.3
2007 11 21    06 07.54   -04 44.5    0.0432   1.020   137.0    41.4    14.8
2007 11 22    06 20.31   +00 16.3    0.0340   1.013   137.8    40.9    14.3
2007 11 23    06 42.09   +08 48.9    0.0254   1.006   137.4    41.6    13.7
2007 11 24    07 26.36   +24 30.7    0.0184   1.000   131.6    47.6    13.1
2007 11 25    09 20.78   +48 30.8    0.0152   0.993   111.8    67.4    13.3
2007 11 26    13 04.70   +57 22.8    0.0180   0.986    86.7    92.2    14.5
2007 11 27    15 09.96   +49 34.2    0.0248   0.979    71.8   106.9    15.9
2007 11 28    15 57.63   +42 47.6    0.0332   0.973    64.1   114.2    17.0
2007 11 29    16 20.56   +38 20.8    0.0423   0.966    59.7   118.1    17.8
2007 11 30    16 33.79   +35 20.6    0.0518   0.959    56.9   120.5    18.4
2007 12 01    16 42.34   +33 12.1    0.0614   0.952    55.0   121.9    18.8
2007 12 02    16 48.29   +31 35.9    0.0711   0.946    53.6   122.9    19.2
2007 12 03    16 52.67   +30 20.9    0.0809   0.939    52.5   123.6    19.5
2007 12 04    16 56.02   +29 20.3    0.0907   0.932    51.6   124.0    19.8
2007 12 05    16 58.66   +28 29.8    0.101    0.925    50.9   124.3    20.0
2007 12 06    17 00.78   +27 46.8    0.111    0.919    50.3   124.4    20.2

Timothy B. Spahr             (C) Copyright 2007 MPC           M.P.E.C. 2007-V59

Read MPEC 2007-V58 Read MPEC 2007-V60


MPEC number:

Enter an MPEC number in one of the following forms:

  • 1997-B01 (the full form)
  • J97B01 (the packed version of the full form)
  • B01 (the abbreviated form)

Valid HTML 4.01!